timestamp,surface_pressure_avg,surface_temp_avg,battery_voltage,lat,long
2021-09-10 00:09:01+00:00,319.1713,16.44,12.73,47.84626,-54.09684
2021-09-10 00:19:01+00:00,326.6447,16.44,12.73,47.84626,-54.09684
2021-09-10 00:29:01+00:00,329.8279,16.4,12.73,47.84626,-54.09684
2021-09-10 00:39:01+00:00,334.7829,16.4,12.73,47.84626,-54.09684
2021-09-10 00:49:01+00:00,340.4047,16.4,12.73,47.84626,-54.09684
2021-09-10 00:59:01+00:00,343.0679,16.4,12.73,47.84626,-54.09684
2021-09-10 01:09:01+00:00,346.13800000000015,16.4,12.73,47.84626,-54.09684
2021-09-10 01:19:00+00:00,352.0264,16.4,12.73,47.84626,-54.09684
2021-09-10 01:29:00+00:00,353.2112,16.51,12.73,47.84626,-54.09684
2021-09-10 01:39:00+00:00,351.67800000000005,16.68,12.73,47.84626,-54.09684
2021-09-10 01:49:00+00:00,349.4847,16.7,12.73,47.84626,-54.09684
2021-09-10 01:59:00+00:00,350.1646,16.7,12.73,47.84626,-54.09684
2021-09-10 02:09:00+00:00,346.2496,16.7,12.73,47.84626,-54.09684
2021-09-10 02:19:01+00:00,344.6263,16.7,12.73,47.84626,-54.09684
2021-09-10 02:29:01+00:00,344.8146,16.69,12.73,47.84626,-54.09684
2021-09-10 02:39:01+00:00,341.7463,16.69,12.73,47.84626,-54.09684
2021-09-10 02:49:01+00:00,337.5680000000001,16.69,12.73,47.84626,-54.09684
2021-09-10 02:59:01+00:00,335.7497,16.69,12.73,47.84626,-54.09684
2021-09-10 03:09:01+00:00,333.7346,16.7,12.73,47.84626,-54.09684
2021-09-10 03:19:01+00:00,328.0630000000001,16.7,12.73,47.84626,-54.09684
2021-09-10 03:29:01+00:00,322.6597,16.7,12.73,47.84626,-54.09684
2021-09-10 03:39:01+00:00,316.1846,16.7,12.73,47.84626,-54.09684
2021-09-10 03:49:01+00:00,306.5363,16.71,12.73,47.84626,-54.09684
2021-09-10 03:59:01+00:00,298.5447,16.72,12.73,47.84626,-54.09684
2021-09-10 04:09:01+00:00,292.9997,16.75,12.73,47.84626,-54.09684
2021-09-10 04:19:01+00:00,286.4613,16.77,12.73,47.84626,-54.09684
2021-09-10 04:29:01+00:00,277.8264,16.79,12.73,47.84626,-54.09684
2021-09-10 04:39:01+00:00,272.0431,16.78,12.73,47.84626,-54.09684
2021-09-10 04:49:01+00:00,261.9864,16.79,12.73,47.84626,-54.09684
2021-09-10 04:59:01+00:00,248.9715,16.8,12.73,47.84626,-54.09684
2021-09-10 05:09:01+00:00,240.3081,16.8,12.73,47.84626,-54.09684
2021-09-10 05:19:00+00:00,235.1781,16.8,12.73,47.84626,-54.09684
2021-09-10 05:29:00+00:00,221.6098,16.79,12.73,47.84626,-54.09684
2021-09-10 05:39:00+00:00,210.8248,16.8,12.73,47.84626,-54.09684
2021-09-10 05:49:00+00:00,208.5881,16.8,12.73,47.84626,-54.09684
2021-09-10 05:59:00+00:00,197.9498,16.8,12.73,47.84626,-54.09684
2021-09-10 06:09:00+00:00,185.1382,16.8,12.73,47.84626,-54.09684
2021-09-10 06:19:01+00:00,180.9481,16.8,12.65,47.84626,-54.09684
2021-09-10 06:29:01+00:00,178.9448,16.8,12.65,47.84626,-54.09684
2021-09-10 06:39:01+00:00,170.1115,16.83,12.65,47.84626,-54.09684
2021-09-10 06:49:01+00:00,159.5765,16.9,12.65,47.84626,-54.09684
2021-09-10 06:59:01+00:00,159.3298,16.9,12.65,47.84626,-54.09684
2021-09-10 07:09:01+00:00,162.0282,16.9,12.65,47.84626,-54.09684
2021-09-10 07:19:01+00:00,158.1931,16.9,12.65,47.84626,-54.09684
2021-09-10 07:29:01+00:00,157.9948,16.9,12.65,47.84626,-54.09684
2021-09-10 07:39:01+00:00,162.9648,16.9,12.65,47.84626,-54.09684
2021-09-10 07:49:01+00:00,160.9332,16.9,12.65,47.84626,-54.09684
2021-09-10 07:59:01+00:00,161.3282,16.9,12.65,47.84626,-54.09684
2021-09-10 08:09:01+00:00,170.1331,16.9,12.65,47.84626,-54.09684
2021-09-10 08:19:00+00:00,174.0115,16.9,12.65,47.84626,-54.09684
2021-09-10 08:29:00+00:00,173.7915,16.9,12.65,47.84626,-54.09684
2021-09-10 08:39:00+00:00,177.9165,16.9,12.65,47.84626,-54.09684
2021-09-10 08:49:00+00:00,184.8015,16.9,12.65,47.84626,-54.09684
2021-09-10 08:59:00+00:00,185.9965,16.9,12.65,47.84626,-54.09684
2021-09-10 09:09:00+00:00,188.7448,16.9,12.65,47.84626,-54.09684
2021-09-10 09:19:01+00:00,198.6832,16.9,12.65,47.84626,-54.09684
2021-09-10 09:29:01+00:00,206.8897,16.9,12.65,47.84626,-54.09684
2021-09-10 09:39:01+00:00,211.3081,16.9,12.65,47.84626,-54.09684
2021-09-10 09:49:01+00:00,216.5514,16.9,12.65,47.84626,-54.09684
2021-09-10 09:59:01+00:00,220.9898,16.9,12.65,47.84626,-54.09684
2021-09-10 10:09:01+00:00,225.7381,16.9,12.65,47.84626,-54.09684
2021-09-10 10:19:01+00:00,228.4397,16.9,12.73,47.84626,-54.09684
2021-09-10 10:29:01+00:00,232.0214,16.9,12.73,47.84626,-54.09684
2021-09-10 10:39:01+00:00,244.2297,16.9,12.73,47.84626,-54.09684
2021-09-10 10:49:01+00:00,252.7331,16.9,12.73,47.84626,-54.09684
2021-09-10 10:59:01+00:00,251.4281,16.9,12.73,47.84626,-54.09684
2021-09-10 11:09:01+00:00,252.3381,16.9,12.73,47.84626,-54.09684
2021-09-10 11:19:01+00:00,266.248,16.9,13.13,47.84626,-54.09684
2021-09-10 11:29:01+00:00,279.0164,16.9,13.13,47.84626,-54.09684
2021-09-10 11:39:01+00:00,288.1848,16.9,13.13,47.84626,-54.09684
2021-09-10 11:49:01+00:00,295.383,16.9,13.13,47.84626,-54.09684
2021-09-10 11:59:01+00:00,309.1997,16.9,13.13,47.84626,-54.09684
2021-09-10 12:09:01+00:00,318.5031,16.9,13.13,47.84626,-54.09684
2021-09-10 12:19:01+00:00,321.0214,16.9,14.32,47.84626,-54.09684
2021-09-10 12:29:01+00:00,327.1379,16.9,14.32,47.84626,-54.09684
2021-09-10 12:39:01+00:00,340.6363,16.88,14.32,47.84626,-54.09684
2021-09-10 12:49:01+00:00,350.6229,16.9,14.32,47.84626,-54.09684
2021-09-10 12:59:01+00:00,350.5896,16.9,14.32,47.84626,-54.09684
2021-09-10 13:09:01+00:00,356.7829,16.9,14.32,47.84626,-54.09684
2021-09-10 13:19:00+00:00,368.4063,16.86,14.16,47.84626,-54.09684
2021-09-10 13:29:00+00:00,367.588,16.9,14.16,47.84626,-54.09684
2021-09-10 13:39:00+00:00,368.9963,16.93,14.16,47.84626,-54.09684
2021-09-10 13:49:00+00:00,374.0229,16.9,14.16,47.84626,-54.09684
2021-09-10 13:59:00+00:00,369.7563,16.87,14.16,47.84626,-54.09684
2021-09-10 14:09:00+00:00,363.343,16.84,14.16,47.84626,-54.09684
2021-09-10 14:19:01+00:00,364.0362,16.83,14.08,47.84626,-54.09684
2021-09-10 14:29:01+00:00,366.48800000000006,16.85,14.08,47.84626,-54.09684
2021-09-10 14:39:01+00:00,361.8347,16.89,14.08,47.84626,-54.09684
2021-09-10 14:49:01+00:00,359.9464,16.9,14.08,47.84626,-54.09684
2021-09-10 14:59:01+00:00,353.3946,16.9,14.08,47.84626,-54.09684
2021-09-10 15:09:01+00:00,345.7729,16.94,14.08,47.84626,-54.09684
2021-09-10 15:19:01+00:00,349.11800000000005,16.94,14.16,47.84626,-54.09684
2021-09-10 15:29:01+00:00,351.653,16.91,14.16,47.84626,-54.09684
2021-09-10 15:39:01+00:00,344.0978,16.94,14.16,47.84626,-54.09684
2021-09-10 15:49:01+00:00,335.8730000000001,16.98,14.16,47.84626,-54.09684
2021-09-10 15:59:01+00:00,329.9797,16.99,14.16,47.84626,-54.09684
2021-09-10 16:09:01+00:00,321.8796,16.99,14.16,47.84626,-54.09684
2021-09-10 16:19:01+00:00,309.9696,16.99,13.92,47.84626,-54.09684
2021-09-10 16:29:01+00:00,302.3414,16.99,13.92,47.84626,-54.09684
2021-09-10 16:39:01+00:00,299.83299999999997,17.0,13.92,47.84626,-54.09684
2021-09-10 16:49:01+00:00,293.0547,17.0,13.92,47.84626,-54.09684
2021-09-10 16:59:01+00:00,282.8364,17.0,13.92,47.84626,-54.09684
2021-09-10 17:09:01+00:00,276.4031,17.0,13.92,47.84626,-54.09684
2021-09-10 17:19:01+00:00,268.7647,17.0,13.68,47.84626,-54.09684
2021-09-10 17:29:01+00:00,256.5098,17.04,13.68,47.84626,-54.09684
2021-09-10 17:39:01+00:00,246.6313,17.06,13.68,47.84626,-54.09684
2021-09-10 17:49:01+00:00,242.0464,17.08,13.68,47.84626,-54.09684
2021-09-10 17:59:01+00:00,228.2364,17.08,13.68,47.84626,-54.09684
2021-09-10 18:09:01+00:00,212.4182,17.1,13.68,47.84626,-54.09684
2021-09-10 18:19:01+00:00,209.6714,17.1,13.76,47.84626,-54.09684
2021-09-10 18:29:01+00:00,214.6331,17.1,13.76,47.84626,-54.09684
2021-09-10 18:39:01+00:00,200.9098,17.1,13.76,47.84626,-54.09684
2021-09-10 18:49:01+00:00,185.1132,17.1,13.76,47.84626,-54.09684
2021-09-10 18:59:01+00:00,186.0148,17.13,13.76,47.84626,-54.09684
2021-09-10 19:09:01+00:00,182.4031,17.14,13.76,47.84626,-54.09684
2021-09-10 19:19:01+00:00,169.2065,17.15,13.37,47.84626,-54.09684
2021-09-10 19:29:01+00:00,161.2631,17.17,13.37,47.84626,-54.09684
2021-09-10 19:39:01+00:00,166.1548,17.19,13.37,47.84626,-54.09684
2021-09-10 19:49:01+00:00,170.1949,17.2,13.37,47.84626,-54.09684
2021-09-10 19:59:01+00:00,160.3115,17.2,13.37,47.84626,-54.09684
2021-09-10 20:09:01+00:00,166.2015,17.2,13.37,47.84626,-54.09684
2021-09-10 20:19:01+00:00,184.2115,17.2,13.05,47.84626,-54.09684
2021-09-10 20:29:01+00:00,181.1548,17.2,13.05,47.84626,-54.09684
2021-09-10 20:39:01+00:00,174.9615,17.2,13.05,47.84626,-54.09684
2021-09-10 20:49:01+00:00,186.6681,17.2,13.05,47.84626,-54.09684
2021-09-10 20:59:01+00:00,198.8531,17.2,13.05,47.84626,-54.09684
2021-09-10 21:09:01+00:00,197.8548,17.2,13.05,47.84626,-54.09684
2021-09-10 21:19:01+00:00,195.4165,17.2,12.81,47.84626,-54.09684
2021-09-10 21:29:01+00:00,203.8548,17.2,12.81,47.84626,-54.09684
2021-09-10 21:39:01+00:00,214.5331,17.22,12.81,47.84626,-54.09684
2021-09-10 21:49:01+00:00,220.8031,17.25,12.81,47.84626,-54.09684
2021-09-10 21:59:01+00:00,225.6631,17.27,12.81,47.84626,-54.09684
2021-09-10 22:09:01+00:00,233.1931,17.28,12.81,47.84626,-54.09684
2021-09-10 22:19:01+00:00,241.9148,17.29,12.73,47.84626,-54.09684
2021-09-10 22:29:01+00:00,238.9981,17.28,12.73,47.84626,-54.09684
2021-09-10 22:39:01+00:00,240.9064,17.27,12.73,47.84626,-54.09684
2021-09-10 22:49:01+00:00,253.8781,17.23,12.73,47.84626,-54.09684
2021-09-10 22:59:01+00:00,262.6647,17.2,12.73,47.84626,-54.09684
2021-09-10 23:09:01+00:00,264.9564,17.2,12.73,47.84626,-54.09684
2021-09-10 23:19:01+00:00,267.5731,17.2,12.73,47.84626,-54.09684
2021-09-10 23:29:01+00:00,277.2565,17.2,12.73,47.84626,-54.09684
2021-09-10 23:39:01+00:00,285.553,17.14,12.73,47.84626,-54.09684
2021-09-10 23:49:01+00:00,292.0481,17.12,12.73,47.84626,-54.09684
2021-09-10 23:59:01+00:00,291.7047,17.12,12.73,47.84626,-54.09684
